Regional Weather Roundup
Issued by NWS Albany, NY

Home | Current Version | Previous Version | Text Only | Print | Product List | Glossary On
Versions: 1 2 3 4 5 6 7 8 9 10 11 12 13 14 15 16 17 18 19 20 21 22 23 24 25 26 27 28 29 30 31 32 33 34 35 36 37 38 39 40 41 42 43 44 45 46 47 48 49 50
007
ASUS41 KALY 271310
RWRALY

NEW YORK STATE HOURLY WEATHER ROUNDUP
NATIONAL WEATHER SERVICE ALBANY NY
900 AM EDT FRI MAY 27 2016

NOTE: "FAIR" INDICATES FEW OR NO CLOUDS BELOW 12,000 FEET WITH NO
SIGNIFICANT WEATHER AND/OR NO OBSTRUCTIONS TO VISIBILITY.

NYZ032-033-038>043-046>054-057>066-NYZ062>081-082-084-271400-
EAST


CITY           SKY/WX    TMP DP  RH WIND       PRES   REMARKS
ALBANY         PTSUNNY   76  57  51 SE5       30.03S
GLENS FALLS    CLOUDY    76  58  53 S8        30.03R
POUGHKEEPSIE   CLOUDY    76  60  57 S5        30.05S
NEWBURGH       MOSUNNY   72  63  73 CALM      30.08R
MONTGOMERY     CLOUDY    75  66  73 CALM      30.06S
WHITE PLAINS   CLOUDY    70  61  73 SE5       30.08R
ISLIP          PTSUNNY   71  62  73 S7        30.08S
NEW YORK CITY  CLOUDY    75  67  76 S7        30.06
CENTRAL PARK   MOSUNNY   76  61  59 CALM      30.09S
$$

NYZ005>009-017-018-044>046-055-056-271400-
CENTRAL


CITY           SKY/WX    TMP DP  RH WIND       PRES   REMARKS
FULTON         CLOUDY    78  66  66 SW8       30.01R
SYRACUSE       CLOUDY    78  64  61 SW9       30.00S
ROME           PTSUNNY   75  64  68 E5        30.02F
ELMIRA         SUNNY     73  62  68 CALM      30.05S
BINGHAMTON     MOSUNNY   71  63  75 VRB6      30.08S
MONTICELLO     CLOUDY    66  64  94 CALM      30.11S
$$

NYZ026>034-041>043-087-271400-
NORTH


CITY           SKY/WX    TMP DP  RH WIND       PRES   REMARKS
WATERTOWN      CLOUDY    76  64  66 SW10      29.98S
FORT DRUM      NOT AVBL
MASSENA        CLOUDY    69  57  65 CALM      29.98R
SARANAC LAKE   CLOUDY    72  57  59 SW9       30.03S
PLATTSBURGH    CLOUDY    73  61  65 SE5       29.98S
$$

NYZ001>004-010>016-019>021-085-271400-
WEST


CITY           SKY/WX    TMP DP  RH WIND       PRES   REMARKS
NIAGARA FALLS  MOSUNNY   75  65  70 SW16      29.99S
BUFFALO        MOSUNNY   75  65  70 SW15G21   30.00R
DUNKIRK        PTSUNNY   74  66  76 S8        30.02R
JAMESTOWN      CLOUDY    66  63  88 S8        30.07S
WELLSVILLE     PTSUNNY   70  64  81 SW7       30.10F
ROCHESTER      MOSUNNY   75  66  73 SW9       30.00S
PENN YAN       SUNNY     75  63  66 SW10      30.04R
$$

             KEY
       WCI = WIND CHILL INDEX
       VSB = VISIBILITY
       HX  = HEAT INDEX
$$




USA.gov is the U.S. government's official web portal to all federal, state and local government web resources and services.